Starlink 30348

operational
NORAD ID: 57712 Int'l Des: 2023-129 Owner: SPXS Country: US Constellation: starlink
LEOCIRCULAR

关于 Starlink 30348

正在加载描述...

实时位置

正在加载3D地球...

即将过境

高度历史

Altitude vs Time

uPlot chart will show altitude changes over time

两行轨道根数

1 57712U 23129Q 25305.78205231 -.00000928 00000-0 -53657-4 0 9993
2 57712 43.0032 95.3161 0001192 269.2559 90.8147 15.02528942121418
Epoch: Nov 1, 2025 • Age: 33 hours

当前状态

高度 559.8 km
速度 7.58 km/s
星下点 -5.71°S, 178.68°E
发射日期 Aug 27, 2023
运行时间 2.1 years
类型 internet

技术详情

分类 Payload
质量 730.00 kg
干质量 700.00 kg
总质量 730.00 kg
长度 0.30 m
直径 4.10 m
跨度 29.00 m
形状 Box + pan
制造商 SPXS
平台类型 Starlink V2M
阶段状态 In Orbit
所有者/国家 SPXS/US

大型星座

Loading constellations...